Cosmos 389 Rocket - Orbit

View from above orbital plane
View from above orbital plane
View from above satellite
View from above satellite

Ground track
Ground track

The orbit data is extracted from the following two-line orbital elements,

1 04814U 70113B   13142.79211333  .00005087  00000-0  23518-3 0  1948
2 04814 081.1492 352.2595 0036842 092.2139 268.3311 15.19352583307651
Epoch (UTC): 22 May 2013 19:00:38
Eccentricity: 0.0036842
inclination: 81.1492°
perigee height: 482 km
apogee height: 533 km
right ascension of ascending node: 352.2595°
argument of perigee: 92.2139°
revolutions per day: 15.19352583
mean anomaly at epoch: 268.3311°
orbit number at epoch: 30765

The dashed part of the orbit path shows where the satellite is in the earth's shadow,  

Developed and maintained by Chris Peat, Heavens-Above GmbH. Please read the updated FAQ before sending e-mail. Imprint. DLR